Location: Montbazon
(47.2835°N, 0.6999°E)
Time: 17:10:43
(UTC+00:00)

SL-24 R/B - RUBIN 2 - Pass Details

Date: 08 November 2025
Orbit: 599 x 987 km, 64.6° (Epoch: 13 December)

Event Time Altitude Azimuth Distance (km) Brightness Sun altitude
Exits shadow 04:39:27 52° 303° (WNW) 937 4.1 -22.5°
Maximum altitude 04:39:41 52° 313° (NW) 929 4.1 -22.5°
Drops below altitude 10° 04:44:30 10° 30° (NNE) 2,158 6.7 -21.6°
Sets 04:46:47 0° 36° (NE) 3,025 7.6 -21.3°
